GFSNGP_250_rhum_000.txt.gz
RH
66 45 44 48 92 100 100 100 100 100 100 100 100 100 100 100 100 100 93 79 68 63 59 62 72 76 68 63 65 81 97 100 100 90 71 58 54 51 48 45 42 36 31 28
100 97 100 100 100 100 100 100 100 100 100 100 100 100 95 84 73 63 63 63 64 62 65 61 51 45 56 80 89 81 66 54 52 57 51 50 45 44 39 35 34 27 22 18
100 100 100 100 100 100 100 100 100 100 99 93 83 74 64 61 61 62 54 52 58 67 54 45 63 70 68 69 59 53 51 50 49 51 46 43 39 37 34 30 27 21 19 15
97 90 95 97 98 99 95 97 98 92 89 85 83 82 77 68 58 60 73 81 60 47 57 72 84 83 72 57 50 45 44 43 42 42 38 33 31 30 26 23 20 16 15 14
100 100 100 100 99 98 92 89 100 100 97 91 90 84 70 61 71 76 60 52 51 51 58 59 61 55 48 42 38 37 40 43 44 45 43 32 34 28 22 16 12 10 9 8
100 100 100 100 100 100 100 100 95 93 88 78 69 73 82 81 70 51 51 50 46 48 51 46 39 39 37 37 46 52 51 54 46 36 34 22 19 15 13 10 6 6 7 7
99 100 100 100 100 96 88 81 83 77 68 63 66 66 57 47 60 62 51 54 47 41 35 36 40 46 57 57 56 62 58 52 40 25 16 13 10 6 6 6 6 6 6 5
79 76 74 68 63 66 69 72 72 68 63 60 68 73 79 71 63 50 43 41 38 35 33 39 44 53 50 55 70 68 61 40 19 11 9 7 6 7 7 6 4 4 4 4
66 64 72 74 76 76 72 70 72 89 100 93 77 67 54 43 41 42 34 32 30 32 36 52 70 68 71 80 64 58 34 14 9 7 7 7 7 6 4 4 3 3 3 3
89 81 85 91 96 99 99 90 92 91 72 60 53 43 34 31 26 22 24 32 37 42 57 68 76 68 69 68 60 27 12 7 8 8 8 7 5 4 4 3 3 3 3 3
84 81 84 83 92 97 92 77 61 53 50 47 45 30 22 22 23 24 29 39 47 53 64 73 70 74 76 46 22 12 10 9 8 8 6 5 4 4 4 4 3 2 2 3
99 94 88 74 64 60 55 47 46 48 48 42 34 28 29 26 25 32 54 57 56 66 72 88 88 78 45 27 14 10 9 9 8 6 4 4 4 4 5 4 4 3 2 2
69 60 54 54 53 49 49 49 60 67 59 47 33 31 30 30 42 61 63 64 82 76 90 90 78 45 27 17 11 9 8 7 5 4 4 4 4 4 5 6 3 2 2 2
66 54 52 53 59 59 64 67 57 46 39 34 33 31 39 51 63 62 65 80 75 92 86 71 44 30 18 11 10 9 7 5 4 4 3 4 4 4 4 3 3 3 3 3
72 67 64 74 68 60 52 45 40 37 35 33 34 40 52 68 66 74 78 78 81 76 65 44 27 16 12 10 8 7 5 4 3 4 4 4 4 4 3 3 3 3 4 3
56 62 71 71 63 54 47 47 48 40 36 36 42 59 71 74 78 79 77 82 71 71 52 25 21 13 10 8 6 5 4 4 4 4 4 4 4 3 3 3 3 3 2 2
63 67 64 56 47 45 48 48 38 39 40 46 58 68 78 71 75 78 77 77 65 63 32 19 13 11 8 6 5 4 4 4 4 4 4 3 3 3 4 3 2 2 2 2
72 65 53 45 44 44 41 42 50 53 52 60 73 82 74 81 81 90 84 68 54 32 16 13 10 9 7 5 4 4 4 4 4 4 3 3 4 4 3 2 2 2 2 2
74 63 47 41 43 45 50 56 54 55 63 77 74 76 76 82 86 74 65 64 47 19 12 11 9 8 6 5 4 4 4 5 5 4 4 4 4 2 2 2 3 3 4 4
64 54 55 62 60 55 57 63 65 70 70 67 73 82 85 75 64 61 53 35 16 10 10 10 9 7 6 6 5 4 5 5 5 4 4 4 2 2 2 3 4 5 5 5
68 75 69 78 71 69 71 73 68 65 74 78 85 81 62 54 36 32 30 17 10 9 10 9 7 6 6 5 5 5 5 5 4 5 4 2 2 2 3 4 4 4 4 5
80 75 67 65 68 69 66 67 70 73 85 82 64 50 44 32 29 24 14 9 9 9 9 8 6 5 5 5 5 5 5 5 5 4 3 2 2 3 4 3 3 3 3 3
74 75 74 67 65 71 80 75 76 82 72 54 48 37 22 21 20 11 9 9 9 8 8 6 6 5 5 5 5 5 5 5 4 3 2 3 3 3 2 2 3 3 3 3
71 70 74 81 84 75 71 76 62 51 44 40 31 21 18 15 9 8 9 8 8 8 6 6 5 5 5 5 5 5 4 4 2 2 4 3 3 2 2 2 2 3 3 3
82 77 71 68 69 70 65 55 46 38 30 30 20 16 11 8 8 10 9 9 8 7 6 5 5 5 5 5 5 4 4 2 3 4 3 2 2 2 2 2 2 3 2 3
75 73 68 64 61 56 54 49 39 28 22 17 13 10 8 9 9 9 8 7 6 6 5 5 5 5 5 5 5 4 2 3 4 3 2 2 2 2 2 2 2 2 2 3
58 52 52 53 53 43 28 23 22 18 13 10 9 8 9 9 9 8 6 6 6 5 5 5 5 4 4 4 4 3 4 3 3 2 2 2 2 2 2 2 2 2 3 3

GFSNGP_250_rhum_003.txt.gz
RH
22 21 19 17 20 28 32 29 30 35 35 30 79 100 100 100 100 100 100 100 100 100 100 93 79 71 65 54 54 58 59 54 58 66 74 66 53 48 42 38 35 37 34 34
33 32 32 31 31 30 29 36 43 41 56 100 100 100 100 100 100 100 100 100 88 80 70 62 60 59 46 48 54 58 55 58 54 50 49 41 39 44 48 49 44 38 41 34
49 41 40 42 46 49 48 44 53 99 100 100 100 100 100 100 99 92 79 65 59 58 57 51 46 46 52 63 65 63 51 46 40 36 36 49 51 55 58 50 41 33 27 21
52 52 48 72 78 64 72 95 100 100 100 100 95 97 97 85 72 62 54 58 57 56 54 51 61 74 76 67 48 46 38 34 35 42 48 58 62 61 49 40 28 22 16 13
83 90 95 91 94 100 100 100 100 100 99 99 89 81 68 66 62 64 66 63 55 56 71 80 71 63 50 40 34 31 34 39 40 50 55 67 60 40 29 18 14 12 10 7
100 100 100 100 98 83 81 85 87 82 86 86 82 79 74 70 67 61 58 66 87 93 82 64 47 38 34 34 33 31 38 44 48 54 62 57 37 21 16 13 10 7 6 6
83 90 99 100 100 97 100 100 100 100 100 100 98 83 70 66 74 92 100 99 85 69 52 45 37 36 35 32 33 39 53 62 64 69 52 36 19 11 9 7 6 6 5 4
100 100 99 100 100 100 100 100 100 97 83 70 68 66 72 98 100 92 86 70 57 50 39 40 45 40 34 38 45 55 61 68 60 45 36 18 11 9 7 7 6 5 4 3
86 97 100 97 93 97 93 84 73 64 68 76 87 94 87 80 74 63 61 58 47 47 57 46 37 35 40 52 62 69 70 55 46 39 18 9 8 7 7 6 4 3 3 3
100 100 79 75 86 76 66 67 70 88 88 76 71 72 71 76 68 66 59 48 57 48 38 33 34 42 52 61 69 78 65 56 45 21 12 9 8 8 6 4 3 3 3 3
71 84 88 89 85 92 98 96 88 82 73 68 78 92 70 67 64 60 56 52 42 38 32 32 38 49 58 71 82 66 64 44 26 14 8 9 9 6 4 4 3 3 3 3
90 73 72 77 81 88 85 78 79 83 93 91 75 68 62 58 57 60 49 40 35 33 34 37 45 53 68 76 68 66 42 25 12 8 8 8 6 5 6 4 4 3 3 2
98 86 86 92 96 96 97 94 81 76 76 67 58 52 53 54 50 43 40 41 37 36 40 48 56 73 73 73 70 42 25 15 10 8 8 7 5 5 6 6 5 4 3 3
100 100 98 91 78 65 63 69 68 56 50 55 56 51 48 48 46 43 43 38 40 44 48 55 77 75 79 65 47 26 16 9 8 8 8 5 5 5 5 5 5 4 3 4
90 84 75 65 62 62 59 48 50 54 56 56 58 54 54 49 44 42 40 42 46 50 63 74 72 78 62 40 19 15 12 8 8 8 6 5 5 5 6 5 4 4 4 4
63 59 62 64 53 48 53 56 60 66 64 61 59 62 56 44 40 41 42 47 56 71 70 78 80 55 35 20 16 15 9 8 8 7 5 5 5 6 5 4 4 4 4 3
76 78 75 77 69 61 62 68 70 68 67 67 63 51 45 44 45 45 52 63 70 72 81 74 53 38 26 20 16 9 8 8 7 5 5 5 5 5 4 4 5 4 2 2
82 80 77 74 77 82 82 76 68 60 54 51 46 47 47 45 54 60 66 66 72 84 70 56 43 28 21 14 8 8 8 7 6 5 5 6 6 5 4 5 4 3 3 4
82 80 78 77 73 67 63 60 59 59 58 52 48 50 58 62 65 66 68 84 80 73 63 49 28 17 12 9 9 9 7 6 5 6 6 6 5 4 4 4 2 3 4 4
86 88 82 76 73 69 63 56 53 52 55 60 63 67 62 66 70 82 86 74 63 55 49 25 17 12 9 8 9 8 6 5 6 6 6 5 4 4 4 3 3 3 4 3
68 66 65 64 58 53 50 56 58 60 66 66 66 66 70 77 82 78 68 56 43 30 19 15 10 8 8 9 8 6 6 6 6 6 5 5 5 4 3 3 3 3 3 3
63 60 61 60 58 59 61 62 64 65 64 67 73 78 82 81 72 58 48 28 19 14 13 10 8 8 8 8 6 6 6 6 6 6 5 5 5 3 4 3 3 3 3 3
62 63 60 57 58 58 58 62 70 76 80 80 78 74 68 57 49 39 21 15 12 10 8 7 7 8 7 6 6 6 6 6 6 5 5 4 4 5 4 2 2 3 3 3
64 63 64 63 64 70 79 83 83 81 70 54 48 44 38 39 28 15 12 11 9 7 7 8 8 7 6 6 6 6 6 6 5 5 4 4 4 4 2 2 3 3 2 3
82 80 79 80 82 82 84 78 64 53 38 32 24 22 18 15 14 13 9 7 7 7 8 8 7 6 6 5 6 6 5 4 4 4 4 4 3 2 2 2 3 2 2 3
80 83 85 81 75 67 57 49 32 22 18 15 16 15 14 11 9 8 8 8 8 8 8 7 6 5 5 5 5 4 4 4 4 4 4 3 3 3 3 3 2 2 2 3
63 60 61 59 50 37 28 18 15 15 15 14 12 10 9 8 8 8 8 8 8 8 6 5 5 5 5 5 4 4 3 3 4 3 3 2 3 4 4 3 2 2 2 3

GFSNGP_250_rhum_009.txt.gz
RH
20 25 26 28 28 25 23 24 22 26 26 27 29 33 32 26 24 23 23 25 25 30 33 37 37 34 37 76 88 100 100 91 86 83 83 89 70 63 67 59 53 47 38 28
17 18 20 22 21 22 22 23 26 27 28 27 29 31 28 23 22 23 25 25 27 34 43 38 39 39 55 100 100 100 86 90 95 96 81 59 61 61 57 54 46 31 29 40
19 18 17 18 18 18 19 21 24 26 27 27 28 25 23 23 24 25 27 29 35 42 43 42 41 67 100 100 99 88 94 98 88 68 53 55 56 56 51 36 29 38 42 43
17 17 19 21 19 20 21 21 22 24 24 22 21 21 23 24 26 30 39 42 44 46 47 53 90 100 100 95 90 99 88 63 54 53 52 54 50 39 35 35 43 45 45 50
22 24 24 22 21 20 19 18 19 20 20 19 21 25 28 34 43 52 48 52 51 56 70 94 99 95 100 100 87 80 61 49 49 56 50 44 45 44 46 49 47 46 48 52
26 28 28 24 23 21 20 24 26 26 27 26 24 25 33 36 44 47 44 55 69 86 94 82 84 100 97 90 64 53 48 56 53 42 45 49 50 48 48 49 44 48 58 52
37 40 46 30 26 24 23 31 28 29 32 33 36 40 43 45 46 63 82 95 89 73 75 94 96 93 72 52 51 56 55 44 46 50 50 47 48 49 49 47 54 61 58 45
54 53 54 45 41 43 46 44 46 42 43 44 48 65 70 83 89 88 74 77 79 94 96 94 80 55 54 61 57 44 44 50 52 50 52 50 50 52 48 59 61 56 33 18
84 84 87 83 70 64 66 68 77 86 79 96 98 82 78 75 68 69 89 100 94 90 84 69 65 69 63 41 40 47 60 60 60 59 48 54 52 53 61 66 52 23 13 11
100 100 100 100 100 100 88 100 91 93 94 72 61 82 83 63 76 93 93 93 90 75 70 73 65 47 42 46 59 74 69 66 54 51 55 54 59 62 70 45 16 10 10 9
100 100 99 92 96 96 97 93 76 74 85 84 80 71 73 80 86 86 80 80 75 74 66 47 47 54 56 68 72 68 65 55 53 54 54 60 71 73 49 19 10 9 8 6
81 75 79 72 75 78 78 80 82 83 83 84 78 72 70 73 78 84 86 81 72 58 57 62 62 69 70 66 63 56 54 55 53 54 63 70 69 52 19 10 11 8 6 6
60 62 56 60 78 79 77 83 87 84 72 56 58 84 92 95 90 86 70 63 67 68 70 71 69 65 59 54 52 58 55 51 59 63 63 64 38 13 10 12 9 7 6 7
62 60 59 54 49 47 48 48 46 47 50 63 90 93 86 76 69 68 68 69 71 71 68 65 58 55 56 61 56 50 57 59 55 64 44 20 10 10 10 8 8 8 8 7
68 70 70 68 69 68 64 56 52 61 73 74 75 74 69 68 69 71 73 75 70 65 66 62 61 60 55 52 57 57 58 63 61 31 13 10 10 9 7 7 7 8 8 6
72 80 84 90 85 85 77 71 70 70 73 77 70 70 67 65 70 74 74 76 72 66 66 60 55 58 57 56 57 58 66 53 21 12 10 10 8 7 6 7 7 7 6 5
76 78 80 84 85 75 73 72 72 72 64 60 61 66 73 78 80 77 69 63 63 63 62 61 60 58 58 55 59 56 31 16 12 10 9 8 7 6 6 7 6 6 5 5
59 62 62 62 61 60 61 62 60 63 69 76 79 79 78 75 72 67 62 64 66 62 62 60 59 56 54 49 38 17 12 11 10 9 8 7 6 6 6 5 5 5 5 4
67 64 59 56 61 68 71 73 76 77 76 72 71 75 73 66 65 68 67 63 65 62 61 60 51 43 41 28 14 11 11 10 9 8 6 6 6 5 4 4 5 5 4 4
60 60 62 63 64 66 68 69 68 68 72 77 80 76 69 69 72 68 65 66 65 65 62 46 35 34 23 16 12 10 9 9 7 6 6 6 5 4 4 5 4 4 4 4
67 67 67 69 73 76 77 76 76 79 81 73 72 75 74 73 74 70 66 68 70 54 45 32 26 18 16 12 10 9 7 7 7 6 6 4 4 5 5 4 4 4 3 3
76 74 73 72 74 80 82 78 72 66 68 73 79 84 80 70 69 75 79 71 60 43 30 24 17 13 10 9 8 7 7 7 6 5 4 4 5 5 4 4 3 3 3 3
90 87 84 83 84 79 72 70 76 86 87 85 79 72 78 86 85 81 69 57 39 26 20 15 12 10 8 7 6 7 7 6 5 5 4 5 4 4 4 3 3 2 3 4
90 89 85 83 85 89 90 89 84 83 84 86 84 84 83 72 64 58 50 34 22 16 14 12 9 8 7 7 8 7 6 5 5 5 5 4 4 4 3 3 3 3 4 5
99 99 96 90 90 89 84 80 81 86 88 81 76 66 60 53 44 37 24 18 14 12 10 8 8 7 7 8 7 5 5 5 4 4 4 4 4 3 2 3 3 4 5 5
98 96 90 87 89 87 82 74 68 62 60 61 59 56 48 39 31 23 16 13 10 9 8 7 7 7 8 6 5 5 5 4 4 4 4 3 3 2 2 3 4 5 5 4
92 90 86 80 75 72 67 59 53 48 50 53 51 43 34 26 19 13 11 10 9 7 7 7 7 7 6 5 4 5 4 4 4 4 3 2 2 3 3 4 5 5 4 4

GFSNGP_250_rhum_012.txt.gz
RH
19 23 26 29 31 23 20 22 22 25 25 28 27 30 30 29 29 28 28 29 29 32 31 25 23 23 24 24 23 31 43 42 44 73 97 100 100 84 72 79 72 52 49 54
20 21 24 29 33 32 26 22 30 34 38 31 28 27 28 30 29 28 28 29 30 31 28 24 23 25 25 24 27 38 42 59 94 100 100 98 92 93 72 64 52 51 41 34
19 20 21 25 34 35 34 30 31 29 31 26 29 29 29 28 28 28 27 28 29 28 24 24 26 27 26 34 43 51 69 89 100 100 100 86 79 67 55 50 40 38 39 41
19 20 21 24 24 30 33 33 34 35 33 32 31 30 27 25 25 26 27 27 26 24 25 27 28 30 42 51 61 79 98 100 100 88 75 66 52 51 40 39 40 39 45 54
18 18 19 19 20 21 22 24 27 30 29 27 25 23 23 22 23 24 25 24 22 23 26 30 44 61 66 83 93 100 96 86 88 61 49 52 46 36 41 41 45 51 60 66
17 19 18 17 18 19 19 20 21 21 22 21 20 21 23 24 24 23 22 23 29 39 53 69 73 77 79 90 97 98 86 56 48 54 56 35 37 41 45 51 55 60 61 62
23 25 22 19 22 21 22 24 22 22 22 23 23 22 22 24 27 30 36 50 63 72 81 89 93 83 83 96 80 58 50 58 61 52 38 39 45 51 55 54 69 61 52 58
43 50 42 34 34 37 35 33 33 33 32 30 31 31 33 36 42 53 66 86 91 93 92 77 76 95 94 72 62 62 66 65 48 40 43 48 54 55 62 60 50 55 63 57
48 49 40 40 43 41 44 53 48 43 44 44 44 47 49 53 91 100 92 83 66 62 78 74 80 80 66 64 70 72 59 47 44 44 46 53 62 65 51 53 61 59 44 28
80 84 80 64 61 63 63 61 60 64 66 72 87 100 100 92 69 62 62 54 64 76 69 70 66 63 68 76 65 55 51 46 46 53 67 71 56 52 58 58 50 32 20 13
95 96 89 84 89 94 94 92 88 91 91 79 73 63 58 60 58 57 82 82 72 66 63 67 78 81 67 56 57 53 52 56 64 70 64 58 57 58 57 49 28 16 10 8
100 100 100 100 100 100 100 100 100 100 100 97 89 81 67 64 66 67 66 58 57 75 78 75 68 60 60 59 57 59 64 69 71 60 55 58 57 56 43 25 13 10 8 7
81 94 98 97 95 93 87 84 84 87 67 62 58 54 56 54 54 53 51 57 70 69 68 59 60 59 58 62 68 70 71 61 55 56 56 54 47 31 18 11 9 9 8 7
63 65 62 62 62 69 72 65 61 59 56 56 53 46 43 44 50 54 60 64 62 60 60 59 61 69 73 74 71 63 58 57 55 53 50 35 20 12 10 9 8 8 8 6
71 77 58 59 52 43 43 45 46 44 42 47 59 62 61 60 62 62 60 61 63 64 68 74 79 78 72 65 68 63 59 54 52 42 27 14 11 9 8 8 8 7 7 7
64 65 58 54 56 57 59 63 68 73 78 76 70 67 62 59 60 61 61 65 71 76 80 79 76 69 71 73 68 59 54 49 35 24 14 10 9 8 8 8 7 7 6 5
62 60 59 59 60 64 71 72 67 67 67 66 67 65 62 62 69 75 77 77 78 76 77 77 75 76 74 66 60 55 38 26 21 12 10 9 8 8 7 7 7 7 5 5
62 62 63 65 67 68 62 57 57 57 60 65 68 69 70 76 74 70 71 75 80 86 84 78 73 73 70 63 48 34 26 17 13 11 9 8 8 7 7 7 6 5 5 5
64 68 71 69 68 69 70 69 72 76 77 74 70 67 67 71 77 83 93 92 89 78 74 79 77 74 58 40 33 23 16 14 11 9 8 8 7 7 6 5 5 5 5 5
64 64 63 66 67 64 63 64 64 64 68 69 70 74 80 95 100 97 88 79 80 84 78 73 61 45 38 33 19 15 14 11 9 8 7 7 7 6 5 5 5 5 5 5
88 84 74 66 66 70 71 73 78 83 84 93 99 97 91 93 92 86 88 86 79 76 68 56 46 40 27 17 16 15 10 9 8 7 7 7 5 5 5 5 4 5 5 4
85 83 84 92 94 91 91 95 96 95 95 93 94 98 100 97 94 87 81 75 73 68 59 47 36 26 18 15 12 10 9 7 7 7 6 5 5 5 5 4 5 5 3 3
96 99 97 90 85 90 92 92 95 98 100 98 96 96 92 87 85 77 76 74 64 54 47 38 30 19 16 12 10 9 8 7 7 6 5 5 5 5 4 5 4 3 3 4
98 94 91 91 96 99 99 98 96 90 86 89 89 86 82 82 83 75 66 63 52 46 39 28 18 14 10 9 8 8 7 7 6 5 5 4 4 4 4 4 3 3 4 4
92 94 95 95 95 97 93 87 86 89 92 91 89 86 81 77 75 66 57 46 41 35 24 17 12 9 8 8 7 7 7 6 6 5 4 4 4 4 3 3 3 4 5 7
99 99 99 98 95 92 92 91 95 97 95 91 89 81 76 69 58 45 32 28 26 20 13 11 9 8 8 7 7 7 6 6 5 4 4 4 4 3 3 3 4 5 7 7
97 97 95 94 96 92 91 94 91 88 83 80 70 61 54 47 33 29 26 22 15 12 11 9 7 7 7 7 7 5 6 5 4 4 4 3 4 4 3 4 6 7 6 6

GFSNGP_250_rhum_015.txt.gz
RH
20 22 31 28 26 24 23 26 27 30 29 28 28 31 36 37 37 38 37 36 35 33 30 29 28 27 28 27 26 26 26 24 23 27 33 38 51 58 66 79 92 85 77 65
24 24 29 29 23 24 28 29 32 32 33 32 32 32 33 34 35 35 32 30 29 28 28 29 28 27 25 25 26 27 25 24 27 33 43 56 66 71 89 91 79 74 60 57
23 22 22 29 30 25 27 29 30 32 35 27 27 27 28 28 27 25 25 27 30 31 32 30 28 24 24 26 26 25 24 30 41 50 67 76 83 88 83 72 61 52 52 36
21 22 22 27 33 35 29 28 27 30 29 27 27 25 26 26 29 30 31 32 33 33 31 27 24 24 25 25 25 28 36 50 59 81 73 81 88 88 63 48 54 41 34 33
19 20 21 21 23 28 34 38 37 43 41 42 39 36 36 35 34 35 36 36 34 31 27 24 24 27 26 28 34 50 56 72 73 77 88 89 68 51 52 53 37 34 39 46
21 20 20 19 20 21 22 25 28 32 34 35 36 37 38 38 37 37 34 31 28 25 26 30 28 29 36 46 60 66 72 75 85 78 66 57 55 58 44 43 44 40 50 58
22 21 20 19 20 20 20 21 21 22 24 26 27 28 29 28 28 25 25 25 28 30 29 34 45 49 64 70 77 74 77 78 63 55 55 60 56 45 50 44 47 54 53 55
22 22 21 21 22 22 22 22 22 22 23 25 26 25 25 25 28 31 32 30 36 45 54 58 77 78 72 62 66 82 68 58 56 62 60 50 50 50 50 50 52 52 57 55
29 27 23 24 27 27 28 30 31 30 29 31 30 31 33 32 33 41 45 53 55 58 77 75 72 68 76 91 85 64 57 64 62 53 52 53 54 53 52 52 54 58 49 41
47 38 34 33 34 37 38 39 38 36 42 53 55 52 54 54 58 63 66 77 84 73 64 61 64 61 61 58 55 58 62 50 50 53 57 58 54 52 54 58 52 45 40 32
73 70 60 56 51 45 45 47 50 51 56 62 65 69 71 80 85 83 86 79 77 81 65 56 54 54 52 50 57 52 48 51 56 63 64 60 61 62 53 48 45 39 28 16
86 91 88 79 81 81 83 82 81 85 83 83 85 90 99 100 92 88 90 74 63 53 47 45 45 48 53 53 51 52 56 64 70 66 66 65 60 51 44 40 33 25 12 8
92 84 85 92 93 96 100 100 100 100 100 100 100 100 93 88 84 80 55 52 48 46 48 52 54 52 53 56 59 65 70 69 68 70 62 58 45 39 32 29 18 11 9 8
81 82 77 77 90 93 97 96 93 91 90 86 84 75 64 64 57 51 43 45 54 63 59 54 54 59 63 64 65 69 70 70 70 64 53 43 38 28 22 13 11 9 8 7
68 62 58 56 61 69 78 73 66 67 60 56 51 47 46 44 48 60 68 70 65 55 55 60 66 66 63 68 71 71 76 69 57 48 42 34 26 17 14 11 8 8 7 7
59 55 57 58 58 54 53 51 50 47 48 50 52 62 69 71 70 64 61 54 57 67 70 69 66 68 76 77 78 77 64 57 47 39 29 21 13 14 12 8 8 7 7 7
60 64 66 68 68 59 56 55 52 50 57 65 70 70 67 65 58 58 65 75 76 72 69 73 84 83 80 82 74 60 54 45 34 25 17 12 14 10 7 7 7 7 7 5
61 69 76 76 75 71 68 68 68 71 71 71 68 66 64 65 68 68 72 75 78 84 93 95 90 88 79 68 57 50 39 28 24 16 12 14 10 8 8 7 7 7 6 6
73 74 78 80 79 77 76 74 72 67 64 65 65 66 66 66 73 86 92 94 99 99 93 87 83 76 64 58 43 31 26 21 15 12 13 10 9 8 7 7 7 5 6 5
62 63 64 64 65 62 59 59 59 56 55 59 65 81 92 99 100 100 100 100 95 92 90 82 72 62 49 35 30 24 22 14 13 13 10 9 8 7 7 6 5 5 5 5
63 68 70 66 60 63 72 78 82 91 97 99 100 100 100 100 100 100 99 96 91 86 72 62 49 41 34 31 26 24 15 15 12 10 9 8 8 7 6 5 5 5 5 4
81 79 80 85 94 96 94 97 100 100 100 99 97 99 100 100 98 98 92 86 72 62 54 46 43 39 34 29 22 14 14 11 10 9 7 7 6 5 5 5 5 4 4 3
81 82 90 99 100 100 100 100 100 99 96 96 97 96 95 94 90 84 74 67 62 51 50 49 38 35 28 20 15 14 11 10 8 7 7 6 5 6 5 5 4 4 3 4
100 100 100 100 100 100 99 100 97 94 91 94 99 90 84 84 80 75 68 62 56 58 47 41 38 29 17 14 12 10 9 7 7 7 6 5 5 5 5 4 3 4 4 4
97 98 100 100 100 99 98 100 99 94 90 87 83 84 82 80 72 67 62 61 55 48 44 34 23 16 13 11 10 8 7 7 7 6 5 5 5 5 4 4 4 4 4 6
100 100 100 99 97 99 94 86 88 88 84 88 87 82 73 66 66 62 56 51 45 38 30 20 14 12 11 10 8 7 7 7 6 5 5 5 5 4 4 4 4 4 7 9
98 95 95 98 95 90 89 88 86 84 79 77 72 66 67 63 56 52 49 43 35 26 17 14 12 11 9 8 7 7 7 6 5 5 5 5 4 3 4 4 5 7 9 8

GFSNGP_250_rhum_018.txt.gz
RH
31 39 30 25 34 32 35 47 39 40 49 48 34 29 31 35 38 39 39 39 40 40 40 40 38 37 34 30 29 31 32 31 30 27 24 25 25 23 24 28 36 45 60 75
27 22 25 27 31 28 32 33 39 39 44 46 34 30 29 29 30 34 37 41 43 42 40 37 35 34 31 31 31 32 33 32 30 26 25 25 24 25 32 40 50 56 64 70
25 24 23 22 32 29 32 35 37 39 38 29 32 29 31 32 35 34 33 32 32 32 32 32 31 28 31 32 33 34 34 31 26 26 26 25 30 38 41 51 58 63 59 52
24 26 24 26 34 30 28 32 38 40 42 28 36 34 31 33 33 32 33 33 32 32 30 27 29 33 35 37 37 35 29 26 27 27 29 36 40 54 54 55 56 53 56 55
28 27 24 26 32 32 29 30 38 40 36 32 38 37 29 30 32 32 30 30 30 30 32 37 40 39 39 37 30 25 27 29 30 37 44 48 50 52 55 53 58 59 48 43
33 29 25 25 30 38 42 32 35 32 30 33 31 31 32 30 28 30 40 43 44 45 43 41 38 34 28 24 28 33 34 36 49 55 50 51 56 56 54 58 54 42 43 46
30 30 27 25 26 29 42 43 41 39 38 40 38 38 39 39 42 45 44 41 38 35 31 28 25 26 31 34 38 46 54 56 50 48 48 49 51 50 55 45 43 45 48 46
26 26 26 26 26 26 26 26 30 36 39 41 42 42 40 34 29 26 26 26 26 26 26 28 32 35 42 42 52 57 56 50 47 50 51 47 49 49 44 44 50 52 44 38
28 27 27 25 25 25 26 26 26 27 28 28 27 26 26 25 25 27 27 26 27 31 32 46 53 56 56 60 59 57 54 50 46 43 45 49 45 45 51 54 52 43 38 35
24 24 26 27 28 28 28 27 26 24 24 24 24 24 25 26 26 27 28 33 48 59 61 68 69 69 63 62 58 53 48 46 48 50 45 44 51 55 55 52 40 38 36 37
31 29 25 24 27 27 26 27 26 25 25 26 26 27 30 36 48 56 62 71 79 78 78 80 64 61 60 51 46 43 51 53 47 44 52 57 59 58 52 45 39 35 32 23
65 55 48 48 46 44 44 46 43 46 48 48 54 59 68 74 77 79 76 82 93 89 77 67 64 59 49 45 56 59 51 46 50 57 57 62 60 63 52 44 39 32 21 12
77 76 78 80 87 93 96 97 95 88 84 81 77 76 77 79 96 100 98 92 81 62 58 56 55 48 61 65 54 48 50 57 60 65 65 56 51 46 49 41 29 20 12 8
89 87 85 80 76 74 77 82 84 85 95 99 100 99 97 95 88 78 63 56 52 46 45 48 68 71 58 50 52 58 65 73 72 63 53 51 47 41 31 24 16 12 10 7
100 93 89 88 86 86 81 72 70 79 85 83 81 82 83 75 63 51 45 47 56 70 76 74 64 54 55 61 70 77 76 68 58 56 54 45 36 29 20 13 9 8 8 7
89 99 96 92 82 74 71 61 57 52 51 58 59 55 50 46 46 53 60 69 81 78 64 56 58 63 74 79 75 73 69 63 58 52 43 34 26 17 13 10 8 8 7 6
67 76 80 76 70 62 59 58 61 60 60 61 53 47 49 51 57 76 81 73 65 58 59 64 75 80 77 72 70 68 64 56 49 41 31 22 15 15 10 8 8 7 7 6
64 69 66 66 64 64 62 61 62 64 62 64 73 80 82 82 75 66 62 60 61 68 80 82 79 74 73 72 67 60 53 46 36 27 22 17 16 9 9 8 7 7 7 6
72 68 72 70 60 59 66 71 74 79 84 84 81 72 64 61 60 63 71 78 85 87 81 80 81 77 71 62 58 52 40 32 26 21 16 15 10 9 8 7 7 7 6 5
65 66 64 65 71 77 79 79 76 69 65 65 69 68 71 78 81 83 86 88 86 84 84 83 74 68 65 60 48 38 32 26 23 19 14 10 10 9 7 7 7 6 5 5
78 76 72 67 61 57 54 56 62 68 80 88 88 86 85 83 82 90 92 87 87 85 78 74 68 64 54 43 37 30 30 24 20 12 11 10 9 7 7 7 6 6 5 5
58 58 60 63 66 73 76 76 79 82 82 84 84 83 83 89 98 96 91 85 77 74 71 66 58 48 43 34 34 32 25 18 11 12 11 8 7 6 7 6 5 5 5 4
80 77 75 75 77 79 81 81 83 87 88 91 96 94 95 96 90 84 81 80 78 72 66 56 48 37 32 34 34 25 18 13 12 10 8 6 6 7 6 5 5 5 4 4
90 91 95 98 98 95 92 94 99 99 97 93 90 93 97 90 87 87 80 74 70 64 54 45 36 32 36 36 26 18 14 12 10 8 6 6 7 6 5 5 5 4 4 5
98 98 97 94 93 96 96 96 94 91 94 96 98 98 91 82 80 78 76 72 62 51 45 36 36 38 34 27 18 13 12 9 7 6 7 7 6 5 5 4 4 5 5 6
100 100 100 100 100 98 98 98 97 97 98 98 89 81 79 77 77 78 71 61 49 42 39 38 34 31 27 16 14 12 8 6 6 6 6 6 5 5 4 4 4 5 6 9
97 92 90 92 99 99 98 97 94 92 88 84 82 78 80 83 77 64 58 51 44 40 35 32 28 24 15 13 10 7 6 6 6 6 6 5 5 4 4 4 5 6 9 8

GFSNGP_250_rhum_021.txt.gz
RH
100 100 100 100 100 100 86 58 38 39 47 51 49 50 53 53 57 61 59 52 46 51 56 53 52 53 49 43 43 41 39 35 34 30 27 31 33 32 25 22 24 26 27 30
100 100 100 100 96 81 32 36 35 36 43 47 42 48 48 56 60 62 56 47 45 50 52 52 48 43 42 42 41 38 36 34 29 30 34 35 32 24 23 25 29 32 34 38
100 94 70 66 37 22 27 27 22 32 41 40 43 48 49 60 57 52 50 47 47 49 49 45 41 39 40 39 37 35 31 30 34 37 36 29 22 22 29 32 37 41 44 45
74 72 60 37 23 22 26 20 22 29 36 40 51 50 47 50 50 45 41 40 41 42 40 38 39 38 36 35 31 34 38 38 37 33 25 22 25 33 37 39 46 50 44 42
70 68 43 29 21 28 20 18 31 30 38 58 59 50 44 43 46 45 40 37 38 37 35 34 33 33 32 34 40 40 39 33 26 23 24 30 41 40 46 53 55 43 44 45
45 53 49 30 23 27 19 31 36 33 44 56 55 50 50 54 56 48 44 41 37 36 35 35 35 36 35 42 39 31 24 24 24 31 42 39 46 55 54 46 45 47 51 44
51 43 34 27 26 25 27 37 42 38 39 45 44 45 52 50 46 47 49 48 42 38 39 40 43 43 39 31 24 23 25 31 40 39 47 56 58 48 46 44 52 49 42 42
43 40 35 30 31 26 31 37 46 51 48 41 39 39 40 40 41 40 40 44 48 50 51 46 39 27 23 23 26 32 40 46 52 56 58 56 50 44 51 55 44 44 42 46
36 34 32 32 27 26 28 34 41 46 49 54 59 60 60 63 65 63 59 53 46 37 27 24 23 25 26 35 46 51 53 64 60 55 51 46 53 60 49 45 44 44 47 40
35 36 36 33 31 29 28 29 30 32 34 36 38 39 38 35 33 30 28 26 26 25 27 28 30 40 53 55 62 64 61 53 53 48 51 64 58 47 47 45 49 46 40 35
29 30 30 31 31 31 30 29 29 29 30 30 30 30 30 29 28 27 28 29 31 33 39 50 56 58 65 71 66 54 50 45 49 69 67 53 51 49 52 52 45 40 35 28
38 34 31 30 28 29 29 29 29 30 32 32 31 31 32 34 36 39 42 44 48 58 61 64 62 63 60 55 49 44 56 75 70 57 52 52 55 59 54 50 48 41 29 16
66 58 58 55 62 60 56 57 64 58 52 52 46 42 46 54 66 75 74 66 64 63 58 57 54 50 48 45 55 77 71 61 54 53 56 58 57 54 63 60 48 30 16 13
74 71 75 78 78 73 72 70 70 73 75 77 78 76 71 65 70 69 64 58 56 55 52 54 50 49 58 74 74 62 55 55 58 63 62 56 57 59 54 43 26 22 16 11
93 85 77 78 84 86 81 76 74 75 78 80 75 71 67 66 62 59 54 46 41 44 46 48 56 70 74 63 57 56 64 66 65 62 58 61 60 47 32 20 18 15 12 10
95 96 98 98 95 92 88 86 82 80 76 70 63 58 53 50 46 43 46 55 51 50 60 78 76 62 57 58 64 67 66 67 63 63 65 59 45 29 20 20 16 12 10 8
76 74 73 78 83 81 76 71 66 63 60 54 51 52 50 53 64 68 70 75 80 80 75 66 60 60 64 66 66 70 72 70 68 70 56 40 25 22 20 17 13 10 8 6
79 72 70 68 62 59 54 51 52 53 52 51 53 58 68 74 79 85 86 79 69 64 64 64 65 66 70 75 78 80 74 73 70 52 32 26 24 21 19 13 11 8 7 7
88 82 81 75 70 72 76 70 63 60 61 60 66 72 78 86 83 71 67 68 73 75 71 66 70 78 79 83 84 76 74 70 47 29 25 24 20 19 13 11 8 7 7 7
82 83 76 90 91 78 67 63 62 64 69 74 80 81 75 72 74 74 74 79 78 70 68 76 81 84 84 79 75 75 65 38 29 27 26 21 21 14 11 8 7 8 7 6
78 85 91 100 96 96 95 93 90 85 78 74 76 83 80 74 74 77 78 73 73 77 82 84 87 85 81 75 77 62 38 29 28 25 21 21 14 11 7 6 7 7 6 6
100 100 100 100 99 88 80 77 76 80 84 83 82 78 77 78 77 78 82 82 82 84 90 88 82 81 76 76 58 36 30 30 25 22 19 13 10 7 6 7 7 6 6 5
99 99 90 85 84 88 90 86 85 83 81 82 79 78 78 82 88 86 86 84 86 87 90 85 78 74 70 52 41 31 33 25 22 17 13 10 7 6 7 7 6 6 5 5
86 84 82 85 87 84 84 87 85 81 79 79 84 92 97 94 87 86 86 84 88 88 80 77 74 66 52 35 28 28 21 19 15 12 10 6 6 7 6 6 6 5 5 5
69 73 79 84 86 90 89 89 90 89 90 91 93 92 88 85 85 84 85 86 84 79 75 74 67 51 30 30 26 20 16 13 12 9 6 6 7 6 6 5 5 5 5 6
96 93 91 92 92 93 94 94 92 91 92 95 94 84 80 83 86 87 84 82 79 82 76 61 41 32 28 22 19 14 12 11 8 6 6 7 6 6 5 5 5 5 7 9
100 100 100 100 100 100 97 96 97 96 92 81 72 80 90 92 89 88 85 85 88 76 62 36 31 24 20 19 14 11 10 7 6 6 7 6 6 5 5 5 6 7 9 7

GFSNGP_250_rhum_024.txt.gz
RH
100 100 100 100 100 100 100 100 70 39 40 34 35 44 48 41 57 63 60 63 66 72 68 64 63 58 56 57 57 61 59 51 47 44 44 41 36 31 29 28 33 28 22 21
100 100 100 100 100 100 92 100 54 43 47 40 40 52 46 43 53 57 63 66 69 72 72 71 66 58 55 54 54 56 53 50 46 44 38 34 32 29 32 33 27 21 22 29
100 100 100 100 100 100 99 100 100 67 50 40 48 46 44 48 56 60 65 71 72 73 69 68 66 62 56 50 50 52 52 48 42 35 34 33 29 30 32 25 22 24 33 37
100 100 100 100 100 97 92 99 76 51 42 39 53 50 54 60 59 64 74 74 72 70 71 71 69 64 55 50 50 50 47 38 35 34 31 28 32 30 23 23 30 38 41 42
100 86 98 89 94 76 67 59 48 46 42 42 55 56 66 63 68 75 78 74 70 68 67 66 63 58 54 48 44 40 36 34 32 30 32 34 26 22 24 40 42 47 38 36
79 67 82 71 50 48 44 41 40 39 41 49 49 49 53 70 74 75 75 69 65 66 69 63 53 48 47 45 38 35 34 32 34 39 30 23 23 34 41 48 43 40 40 52
63 71 62 62 54 46 34 38 38 37 36 42 49 59 70 71 70 72 72 70 68 68 70 69 60 51 43 41 37 35 40 44 33 24 23 28 39 47 52 40 39 52 62 50
56 68 67 59 54 49 41 33 31 31 33 44 53 61 68 66 67 66 63 61 60 59 57 53 47 43 40 39 47 46 33 26 24 25 37 46 53 43 40 54 66 56 52 56
82 87 70 56 54 47 41 37 33 29 34 50 56 60 64 68 71 70 65 60 55 48 42 43 53 54 54 39 29 25 24 24 34 43 54 47 40 46 68 62 54 57 59 58
55 58 60 56 50 46 39 34 34 32 39 54 67 73 73 67 63 59 55 53 57 68 66 54 40 30 26 25 25 25 31 40 54 49 42 42 65 70 61 58 61 58 53 52
50 46 47 43 43 38 36 32 32 33 40 48 53 55 59 63 62 59 57 53 44 33 28 25 24 25 26 29 33 40 52 51 45 43 58 70 64 58 61 62 56 53 53 51
42 41 37 36 34 33 30 29 28 29 30 32 35 37 36 34 31 28 26 25 25 26 27 26 29 41 43 48 52 46 42 42 53 67 67 64 64 65 61 56 54 54 51 29
54 41 34 33 31 30 30 29 28 28 29 29 28 27 27 27 26 26 29 29 30 32 45 47 48 52 46 42 40 39 47 68 70 66 66 66 64 62 60 62 67 54 24 17
76 70 56 47 41 33 28 26 26 26 27 28 29 32 33 36 40 46 53 57 56 54 56 51 45 43 44 47 57 70 71 68 69 67 68 63 60 57 64 70 51 25 20 17
90 89 87 85 83 86 88 88 86 80 75 75 75 74 72 70 67 65 64 58 54 50 47 44 50 60 72 75 69 70 71 69 68 65 62 61 62 67 70 47 29 24 20 15
100 100 96 94 87 84 89 95 100 100 100 96 88 80 76 74 69 61 51 46 49 56 62 66 82 81 72 72 70 69 69 63 61 68 67 66 66 65 39 31 28 23 15 11
96 94 92 93 93 94 92 89 89 82 78 74 68 62 56 53 50 46 45 51 66 73 79 78 73 76 70 64 68 62 60 74 76 69 67 69 62 43 32 25 19 14 11 9
99 99 97 90 81 83 74 66 63 61 59 56 51 46 44 46 45 49 59 70 77 79 78 79 72 67 67 66 62 72 83 75 72 71 66 58 35 27 26 19 12 10 10 6
100 100 89 80 73 70 78 79 74 77 74 68 62 58 54 54 61 69 71 74 77 81 75 70 69 67 65 71 82 86 77 74 71 65 52 35 26 23 17 10 10 9 6 7
91 96 96 89 81 83 84 75 90 91 82 74 74 77 74 70 68 69 78 82 76 70 73 72 70 75 80 83 82 78 76 71 64 48 28 25 23 18 11 10 8 6 7 7
90 95 97 88 80 78 81 97 98 100 100 99 97 84 76 80 84 82 76 75 77 74 70 74 82 86 84 83 81 75 68 57 40 28 26 21 18 13 10 8 6 7 7 6
66 72 73 70 72 89 99 98 100 100 100 93 86 87 85 83 80 76 75 74 73 79 84 85 87 81 80 78 72 64 57 48 32 20 22 20 13 10 8 6 7 7 6 6
76 79 74 85 95 100 100 100 100 100 97 91 87 84 83 80 77 77 80 84 87 85 85 80 74 79 77 70 63 60 49 28 21 23 21 15 9 7 6 7 7 6 6 5
87 94 99 100 100 100 100 100 98 94 94 90 85 82 79 80 84 86 87 86 85 85 73 72 79 75 71 66 62 40 26 23 24 19 12 8 7 5 6 7 6 5 5 5
100 100 100 100 100 99 94 91 86 80 80 80 84 88 88 86 86 85 86 86 78 68 75 80 73 74 66 56 34 27 24 20 17 12 8 6 5 6 7 7 6 5 5 6
100 100 98 93 91 89 90 94 97 94 94 95 89 86 86 89 89 87 81 74 73 78 76 78 73 66 47 31 25 21 19 16 10 7 6 5 6 7 7 6 5 5 6 10
94 94 94 93 92 94 98 97 94 94 92 90 92 95 94 88 84 81 82 83 85 83 82 74 66 39 30 23 19 18 14 9 7 6 5 6 7 7 6 5 5 6 10 10

GFSNGP_250_rhum_030.txt.gz
RH
82 93 99 92 74 61 45 20 14 9 10 12 8 9 18 32 48 58 64 70 52 40 42 39 44 50 56 48 45 56 74 82 77 72 66 66 64 64 63 64 65 65 62 59
99 100 100 100 98 89 77 36 29 26 24 28 35 33 29 36 57 74 76 65 46 39 40 46 54 49 50 53 69 81 92 90 79 74 71 68 65 63 62 66 72 68 63 53
100 87 100 100 100 100 98 84 75 59 75 68 70 72 66 80 70 71 68 53 40 41 46 54 52 48 60 78 90 96 97 91 83 77 73 69 66 63 70 73 70 63 55 48
100 100 100 100 100 100 100 100 100 95 94 96 94 98 100 100 89 70 55 47 43 47 63 74 65 67 81 94 96 96 92 87 82 78 74 72 74 75 69 66 63 56 50 42
94 100 100 100 100 100 100 100 100 99 97 97 100 100 98 70 57 64 49 52 51 65 90 83 75 80 85 94 100 99 92 87 85 86 81 76 69 69 67 59 56 47 46 36
99 100 100 100 100 100 100 97 100 100 100 100 100 85 83 84 55 50 54 58 65 87 92 84 80 80 84 90 94 93 88 90 82 78 75 76 74 62 61 53 48 47 29 24
97 100 100 100 100 100 100 98 98 100 100 100 100 100 100 99 65 60 60 60 84 95 92 84 84 90 95 98 100 93 84 77 79 80 75 67 66 56 52 52 33 26 31 32
100 100 100 100 100 100 83 85 93 100 100 100 100 100 83 62 54 56 56 77 94 97 97 96 96 98 100 100 90 80 81 82 76 73 74 64 59 59 37 29 30 34 34 45
82 91 96 96 82 89 95 96 100 100 100 98 100 89 64 55 51 55 61 84 94 95 97 98 95 91 89 88 86 84 80 77 79 68 68 72 45 31 30 38 35 44 48 47
82 90 100 100 100 98 96 100 100 100 100 85 85 76 60 52 53 58 66 82 89 92 92 91 89 89 88 89 87 79 80 75 74 78 53 33 29 40 36 39 53 47 52 55
100 100 100 100 100 99 90 72 74 72 67 64 59 56 60 52 49 54 64 77 83 84 84 85 85 87 85 83 82 80 77 75 53 36 32 37 37 43 59 52 50 54 56 56
99 100 100 96 87 85 76 66 57 52 52 49 53 59 53 47 49 46 46 55 68 78 81 79 78 81 84 79 72 61 43 36 35 37 38 37 60 59 50 53 56 57 52 46
96 91 79 64 60 62 66 68 66 61 67 69 67 67 69 69 65 60 54 48 48 48 52 60 65 66 58 46 38 39 39 40 40 37 46 67 59 53 58 61 56 48 43 43
79 81 82 70 64 66 59 57 59 63 67 68 70 68 64 60 56 53 51 50 49 48 47 45 42 39 41 44 44 44 42 38 42 62 68 56 54 61 62 57 51 46 45 56
90 90 94 93 87 95 97 100 98 93 90 83 78 71 68 65 64 64 67 68 66 64 61 57 49 41 45 50 43 39 43 48 67 64 57 59 66 59 55 49 44 41 53 41
99 100 100 100 100 100 100 100 100 100 100 100 100 99 98 95 93 90 85 80 75 64 55 47 40 39 41 42 47 51 66 71 64 59 66 62 58 55 48 41 41 48 33 18
100 100 100 100 100 100 100 100 100 90 91 89 85 83 79 78 73 67 63 53 43 45 55 60 60 55 54 66 83 78 64 65 69 67 58 57 55 48 39 39 49 31 18 12
99 100 100 100 100 100 100 100 100 100 93 82 86 84 72 60 62 63 70 83 85 87 92 92 93 92 87 76 66 70 72 68 62 57 58 53 46 39 42 48 30 16 11 9
100 100 100 100 100 98 91 97 97 99 96 89 89 86 80 73 64 74 97 97 99 99 98 94 88 84 77 76 74 70 64 61 60 57 51 47 42 46 43 28 17 11 9 8
84 90 96 97 97 98 100 100 100 99 98 95 94 85 76 77 78 93 100 99 93 91 90 92 90 87 82 76 68 62 64 62 57 51 49 48 49 36 27 18 11 9 7 7
97 97 95 90 89 89 90 93 92 96 98 98 96 84 73 78 98 99 100 97 93 94 98 93 91 86 79 72 68 68 64 58 55 50 51 52 34 27 19 11 8 7 6 6
85 88 94 94 98 100 99 96 86 77 75 69 63 60 73 89 98 94 95 96 99 100 97 93 85 80 77 73 70 68 59 56 57 56 50 32 25 20 11 8 7 6 5 6
97 98 100 100 100 100 99 96 91 84 72 64 55 65 80 97 97 100 99 98 100 97 92 86 82 81 78 74 68 63 63 63 56 46 36 21 19 12 8 7 6 5 6 8
100 100 99 91 98 100 88 64 55 53 53 59 73 91 96 99 100 99 100 100 96 93 91 88 86 81 74 70 74 70 65 54 45 32 19 18 12 8 7 6 5 7 8 6
97 93 85 89 89 100 100 96 89 86 89 94 99 100 100 100 100 100 100 97 97 93 88 87 82 80 81 80 72 62 48 42 32 19 16 12 9 7 6 5 7 8 7 6
98 99 99 100 99 97 96 97 99 100 98 96 97 100 100 100 100 100 97 94 90 90 91 91 88 86 79 71 57 45 40 29 17 13 10 8 7 6 5 7 8 8 7 10
94 96 100 100 100 100 100 100 100 100 100 100 100 100 100 99 95 94 92 93 94 95 93 87 80 72 62 49 43 37 27 17 14 10 7 6 6 5 7 8 7 7 10 10

GFSNGP_250_rhum_033.txt.gz
RH
85 70 88 99 100 85 63 49 29 16 6 5 5 5 6 9 16 28 47 49 53 68 86 89 90 78 59 45 54 56 69 64 56 63 70 69 72 75 81 78 77 74 72 73
82 100 100 100 96 74 88 84 33 20 11 8 6 8 11 14 15 31 45 60 69 68 74 83 84 72 47 43 51 58 68 65 70 73 71 74 78 82 89 86 82 79 80 78
88 100 100 100 94 85 84 87 63 47 34 21 15 18 25 31 37 50 57 64 72 71 63 70 65 55 40 46 55 68 72 75 75 75 79 82 89 97 93 92 87 84 82 81
100 100 100 100 97 100 100 94 80 70 92 78 62 58 50 51 71 89 100 100 89 64 57 60 59 51 42 53 61 63 77 85 82 88 91 94 97 97 96 94 91 86 78 71
100 100 100 93 88 100 100 100 100 100 80 83 87 90 87 99 100 100 100 97 73 72 72 66 53 46 49 59 63 70 89 88 92 95 97 100 100 99 97 94 87 74 73 69
86 100 100 100 98 91 100 100 100 100 100 100 100 100 94 98 89 88 98 97 100 89 63 49 45 51 60 66 74 89 88 89 98 100 100 99 99 98 96 83 76 76 65 58
99 100 100 100 100 94 100 100 100 100 100 100 94 100 100 100 100 100 100 98 83 66 58 55 59 63 73 89 93 95 95 100 98 96 99 100 100 92 84 78 71 66 61 55
100 100 96 100 100 100 88 100 100 100 100 100 100 100 100 100 100 99 74 61 61 62 64 67 68 85 99 100 100 100 99 98 98 100 100 97 91 85 76 69 60 57 55 38
78 81 90 100 100 97 95 93 100 100 100 100 100 100 100 100 100 93 68 63 64 67 70 72 93 100 100 100 100 98 97 100 100 97 93 88 81 73 62 58 58 41 37 33
84 85 86 92 92 91 92 95 100 100 100 100 100 100 100 100 100 89 82 62 64 70 81 97 100 100 100 100 100 100 99 95 90 86 82 74 63 57 56 43 39 36 35 59
100 99 100 100 100 97 100 100 97 100 100 100 100 100 100 96 81 74 70 66 66 74 87 97 99 100 98 96 96 94 89 84 80 73 64 57 54 45 41 40 35 47 65 55
93 83 84 79 96 100 92 81 98 100 100 100 100 100 99 96 99 91 70 60 63 65 73 84 90 92 91 89 84 80 74 65 59 56 53 43 42 41 37 38 62 63 55 57
89 94 99 99 100 96 76 69 70 67 75 85 88 95 100 100 100 96 88 80 70 61 60 62 63 63 63 62 58 50 48 48 46 40 44 46 39 40 57 64 56 56 54 52
100 100 100 99 100 100 81 68 66 66 69 69 74 83 87 93 95 97 95 88 82 78 72 65 59 54 51 48 45 44 41 40 44 41 38 44 66 81 71 71 69 60 53 45
95 100 98 98 100 100 100 92 80 72 73 76 75 82 84 86 89 91 91 89 86 82 79 72 63 55 51 46 41 39 41 46 50 65 86 88 75 68 67 60 56 51 44 43
100 99 100 100 100 100 100 98 100 98 90 95 98 96 94 98 98 91 88 86 76 65 61 53 46 41 43 52 64 74 83 94 99 90 78 72 65 62 57 53 47 43 41 39
100 100 100 100 100 97 99 100 100 99 100 100 100 98 97 94 88 88 82 66 70 69 58 58 76 85 91 98 100 100 99 89 86 78 70 65 63 57 50 46 44 40 34 19
99 100 100 100 100 96 94 99 99 94 92 97 100 92 84 93 98 99 89 80 71 71 85 91 97 100 100 100 98 87 86 86 79 73 67 62 56 50 48 46 39 27 20 12
100 100 100 100 100 97 95 95 99 100 100 100 97 97 100 100 100 100 97 91 80 79 95 100 100 100 99 92 90 93 90 81 75 66 64 58 53 48 45 36 22 16 11 10
91 98 98 92 86 90 98 100 100 100 100 100 100 100 100 99 100 98 94 90 74 78 95 99 99 97 94 94 96 90 81 74 65 63 60 56 50 47 34 21 14 11 9 8
82 83 90 100 100 100 100 100 99 95 96 99 98 98 96 92 94 93 80 68 68 77 90 98 100 98 94 93 88 79 72 66 66 64 57 49 44 32 20 12 10 8 7 6
91 92 97 100 100 100 92 85 86 84 89 93 91 89 89 89 83 77 75 59 66 86 99 100 94 90 92 87 76 68 68 69 63 55 47 42 29 17 13 10 8 6 6 5
94 92 94 92 94 92 82 81 92 100 100 100 83 70 62 63 62 54 54 76 94 98 95 91 91 91 83 72 71 72 69 62 54 49 41 29 16 13 11 8 6 6 5 6
95 91 88 85 78 76 88 96 100 100 100 100 100 94 84 81 85 88 91 95 97 96 95 94 88 80 77 72 70 70 64 54 49 42 28 15 12 11 7 6 6 5 6 8
84 87 92 91 90 92 97 100 100 100 100 99 100 97 96 97 96 96 97 98 98 96 90 86 86 81 75 73 70 62 54 50 44 29 15 12 10 8 7 6 5 6 8 8
100 100 100 100 100 100 100 100 100 100 100 99 99 99 99 97 95 93 91 88 89 92 92 88 84 81 74 67 62 57 54 43 29 17 11 10 8 7 6 5 6 8 8 8
100 100 100 100 100 100 100 100 100 100 100 99 95 96 96 94 92 90 91 94 98 95 89 87 82 76 69 63 57 56 40 36 23 12 10 9 7 6 5 7 9 8 9 10

GFSNGP_250_rhum_036.txt.gz
RH
77 79 64 87 85 99 91 98 70 29 13 7 6 4 4 3 4 10 26 36 40 53 61 59 66 68 81 85 92 98 92 79 59 67 66 71 76 83 74 58 57 62 63 65
76 89 76 88 100 100 75 91 57 31 24 16 7 6 4 4 6 11 30 46 54 54 63 70 74 72 88 99 100 100 100 83 55 60 61 73 80 84 71 70 71 71 69 74
100 82 81 100 100 100 100 87 76 81 46 19 16 10 9 11 12 16 40 56 65 56 64 79 86 90 88 100 100 100 99 91 61 58 61 64 76 86 87 87 83 79 83 90
100 98 100 100 100 100 100 100 82 96 96 60 24 18 17 19 22 25 57 69 77 71 81 96 100 99 98 100 100 97 92 86 56 51 57 62 81 91 91 94 92 91 90 83
100 100 96 100 100 100 100 99 98 87 99 100 84 51 62 65 54 59 76 99 100 100 100 100 100 95 82 87 86 93 86 66 50 54 61 70 87 97 100 98 96 92 88 81
82 92 100 98 93 100 100 100 100 82 97 96 100 100 89 100 100 100 100 100 100 100 100 98 99 98 84 90 97 92 64 51 54 59 64 76 94 100 100 98 96 92 76 74
86 100 100 100 100 100 99 100 100 100 90 98 100 98 100 100 90 100 100 90 94 91 90 91 92 86 87 88 73 57 52 56 60 66 75 96 100 100 97 96 85 77 74 72
76 82 85 96 88 100 99 100 100 100 100 100 100 100 100 96 99 100 99 96 97 94 87 77 73 70 65 65 64 62 63 66 78 94 100 100 100 97 86 78 76 75 79 79
70 75 82 89 85 98 94 100 100 100 100 100 100 100 100 100 100 100 100 100 100 100 99 100 100 95 85 77 73 73 82 98 100 100 100 94 88 83 76 74 78 80 78 70
74 88 90 98 100 93 89 99 100 100 100 100 100 100 100 100 100 100 100 100 98 90 90 95 95 93 91 89 95 100 100 100 100 96 91 89 83 76 78 79 76 64 60 58
93 96 97 93 87 78 89 88 97 96 100 100 100 100 100 100 100 100 99 98 98 99 99 98 97 98 100 100 100 100 100 100 100 96 89 82 79 77 72 58 54 56 51 44
100 100 100 76 84 99 90 96 80 82 91 96 100 100 100 100 100 100 100 100 100 100 100 100 100 100 100 100 100 99 97 91 85 82 80 72 60 52 51 52 48 46 57 81
100 100 77 94 100 100 89 77 84 79 83 90 90 97 98 99 100 100 100 100 100 100 100 100 100 98 90 85 82 80 79 76 65 53 51 52 54 50 46 53 74 87 78 70
95 89 99 100 96 95 86 85 78 76 79 81 85 93 97 100 100 100 100 100 100 100 100 100 100 100 98 85 75 70 65 60 58 55 51 48 59 83 94 92 81 70 59 54
92 97 91 99 100 100 92 82 76 76 77 81 91 99 100 100 100 100 100 100 100 100 100 96 86 75 69 63 58 53 49 49 55 70 89 98 96 91 78 73 69 66 62 54
100 95 100 100 100 100 94 94 91 97 91 98 98 98 99 100 100 100 100 94 90 93 84 70 63 63 60 51 54 70 89 98 100 100 97 90 82 76 75 75 68 57 47 39
97 100 100 98 100 100 92 97 100 100 100 100 100 100 100 100 94 88 91 91 89 94 90 82 77 67 72 77 86 96 100 97 93 93 88 81 86 85 75 63 52 44 36 32
100 98 99 100 100 100 100 100 100 99 99 99 98 98 99 100 99 100 100 97 94 87 82 74 70 66 69 79 99 100 100 97 95 86 87 90 82 68 55 50 42 34 28 22
100 100 100 100 100 100 100 100 100 100 100 98 98 100 100 100 100 98 91 87 83 79 74 69 67 67 65 74 92 96 96 89 86 90 86 74 62 50 46 42 32 25 18 13
100 100 100 100 100 100 98 95 93 93 92 94 98 94 88 86 88 91 90 86 85 81 78 78 74 65 64 88 90 86 87 90 89 78 65 55 48 45 45 32 22 18 12 10
98 100 100 100 100 100 100 98 95 97 100 97 89 87 100 100 98 98 95 88 85 85 82 74 71 76 87 88 89 90 88 81 71 61 55 48 50 44 30 21 16 12 10 7
100 98 96 89 88 91 95 94 97 97 86 87 97 94 97 100 100 98 81 72 70 73 79 88 92 92 94 92 86 79 73 68 61 58 49 52 42 28 18 15 11 9 7 6
100 100 98 96 94 89 86 82 79 88 92 91 94 95 100 100 100 100 100 99 98 94 94 94 95 93 85 79 74 72 68 64 59 53 54 39 26 16 15 10 8 6 6 5
100 100 99 96 97 88 87 96 99 94 85 88 99 100 100 100 100 100 100 100 99 95 91 88 83 78 75 74 72 71 65 59 56 53 39 26 14 14 10 8 6 6 5 7
100 99 96 98 100 98 92 92 98 98 96 99 100 100 100 100 100 100 100 98 90 85 81 79 78 75 72 76 74 65 59 55 53 44 28 13 13 10 8 6 6 6 8 9
100 98 97 100 100 100 100 99 100 100 100 100 100 100 100 100 100 96 93 90 85 82 81 79 75 73 77 74 66 59 56 56 52 31 13 12 10 8 6 6 6 8 9 10
100 100 100 100 100 100 100 100 100 100 98 100 100 100 98 98 95 90 88 87 82 79 79 77 77 76 69 65 61 57 58 58 34 18 11 11 8 7 7 7 9 10 10 12